Hourly Weather Öttömös

Today, 30 July, Friday

Time Temperature Precipitation Wind Pressure Humidity
00:00 +24°C° 0 mm 1 mps 748 mmHg 45%
01:00 +23°C° 0 mm 2 mps 748 mmHg 47%
02:00 +23°C° 0 mm 2 mps 748 mmHg 48%
03:00 +21°C° 0 mm 2 mps 748 mmHg 50%
04:00 +21°C° 0 mm 2 mps 748 mmHg 52%
05:00 +24°C° 0 mm 2 mps 748 mmHg 48%
06:00 +26°C° 0 mm 2 mps 748 mmHg 44%
07:00 +28°C° 0 mm 2 mps 748 mmHg 41%
08:00 +30°C° 0 mm 1 mps 748 mmHg 36%
09:00 +32°C° 0 mm 1 mps 748 mmHg 32%
10:00 +34°C° 0 mm 1 mps 748 mmHg 28%
11:00 +35°C° 0 mm 1 mps 747 mmHg 27%
12:00 +37°C° 0 mm 2 mps 747 mmHg 25%
13:00 +38°C° 0 mm 2 mps 746 mmHg 24%
14:00 +38°C° 0 mm 2 mps 746 mmHg 23%
15:00 +38°C° 0 mm 3 mps 746 mmHg 22%
16:00 +38°C° 0 mm 3 mps 745 mmHg 21%
17:00 +36°C° 0 mm 3 mps 745 mmHg 25%
18:00 +34°C° 0 mm 3 mps 745 mmHg 28%
19:00 +31°C° 0 mm 2 mps 745 mmHg 31%
20:00 +30°C° 0 mm 2 mps 745 mmHg 33%
21:00 +29°C° 0 mm 2 mps 745 mmHg 34%
22:00 +28°C° 0 mm 2 mps 745 mmHg 36%
23:00 +27°C° 0 mm 2 mps 745 mmHg 38%

Tomorrow, 31 July, Saturday

Time Temperature Precipitation Wind Pressure Humidity
00:00 +27°C° 0 mm 2 mps 745 mmHg 40%
01:00 +26°C° 0 mm 2 mps 745 mmHg 43%
02:00 +25°C° 0 mm 2 mps 745 mmHg 44%
03:00 +25°C° 0 mm 2 mps 745 mmHg 46%
04:00 +24°C° 0 mm 2 mps 745 mmHg 47%
05:00 +26°C° 0.1 mm 2 mps 745 mmHg 46%
06:00 +27°C° 0.1 mm 2 mps 745 mmHg 44%
07:00 +29°C° 0.1 mm 2 mps 745 mmHg 43%
08:00 +30°C° 0.2 mm 2 mps 745 mmHg 39%
09:00 +32°C° 0.2 mm 2 mps 745 mmHg 36%
10:00 +35°C° 0.2 mm 3 mps 745 mmHg 32%
11:00 +36°C° 0 mm 3 mps 745 mmHg 30%
12:00 +38°C° 0 mm 3 mps 745 mmHg 27%
13:00 +40°C° 0 mm 4 mps 745 mmHg 25%
14:00 +40°C° 0 mm 4 mps 744 mmHg 24%
15:00 +40°C° 0 mm 5 mps 744 mmHg 24%
16:00 +40°C° 0 mm 5 mps 744 mmHg 23%
17:00 +37°C° 0 mm 5 mps 744 mmHg 28%
18:00 +34°C° 0 mm 4 mps 744 mmHg 33%
19:00 +32°C° 0 mm 4 mps 744 mmHg 39%
20:00 +29°C° 0 mm 4 mps 745 mmHg 43%
21:00 +28°C° 0 mm 3 mps 745 mmHg 47%
22:00 +26°C° 0 mm 3 mps 745 mmHg 52%
23:00 +25°C° 0 mm 3 mps 745 mmHg 55%

Day after tomorrow, 1 August, Sunday

Time Temperature Precipitation Wind Pressure Humidity
00:00 +24°C° 0 mm 3 mps 745 mmHg 57%
01:00 +22°C° 0 mm 3 mps 745 mmHg 60%
02:00 +22°C° 0 mm 3 mps 745 mmHg 62%
03:00 +23°C° 0 mm 2 mps 745 mmHg 63%
04:00 +21°C° 0 mm 2 mps 744 mmHg 65%
05:00 +24°C° 0 mm 3 mps 744 mmHg 58%
06:00 +26°C° 0 mm 3 mps 744 mmHg 52%
07:00 +28°C° 0 mm 4 mps 744 mmHg 45%
08:00 +30°C° 0 mm 4 mps 744 mmHg 40%
09:00 +33°C° 0 mm 4 mps 744 mmHg 35%
10:00 +35°C° 0 mm 4 mps 744 mmHg 30%
11:00 +37°C° 0 mm 5 mps 743 mmHg 25%
12:00 +40°C° 0 mm 5 mps 743 mmHg 21%
13:00 +42°C° 0 mm 6 mps 742 mmHg 16%
14:00 +40°C° 0.1 mm 6 mps 742 mmHg 20%
15:00 +38°C° 0.1 mm 6 mps 742 mmHg 24%
16:00 +35°C° 0.1 mm 6 mps 742 mmHg 29%
17:00 +34°C° 0 mm 6 mps 742 mmHg 31%
18:00 +33°C° 0 mm 5 mps 742 mmHg 34%
19:00 +30°C° 0 mm 5 mps 742 mmHg 37%
20:00 +28°C° 0.1 mm 5 mps 743 mmHg 51%
21:00 +25°C° 0.1 mm 5 mps 744 mmHg 64%
22:00 +21°C° 0.1 mm 5 mps 744 mmHg 78%
23:00 +20°C° 0 mm 5 mps 745 mmHg 81%

2 August, Monday

Time Temperature Precipitation Wind Pressure Humidity
00:00 +19°C° 0 mm 4 mps 745 mmHg 85%
01:00 +18°C° 0 mm 4 mps 745 mmHg 88%
02:00 +17°C° 0 mm 4 mps 746 mmHg 88%
03:00 +17°C° 0 mm 4 mps 746 mmHg 87%
04:00 +15°C° 0 mm 4 mps 746 mmHg 87%
05:00 +17°C° 0 mm 5 mps 746 mmHg 79%
06:00 +19°C° 0 mm 5 mps 747 mmHg 70%
07:00 +21°C° 0 mm 5 mps 747 mmHg 62%
08:00 +23°C° 0 mm 5 mps 748 mmHg 54%
09:00 +26°C° 0 mm 5 mps 748 mmHg 46%
10:00 +28°C° 0 mm 5 mps 748 mmHg 38%
11:00 +29°C° 0 mm 5 mps 748 mmHg 35%
12:00 +30°C° 0 mm 5 mps 748 mmHg 32%
13:00 +32°C° 0 mm 5 mps 748 mmHg 30%
14:00 +32°C° 0 mm 6 mps 748 mmHg 29%
15:00 +32°C° 0 mm 6 mps 748 mmHg 28%
16:00 +32°C° 0 mm 6 mps 747 mmHg 27%
17:00 +29°C° 0 mm 5 mps 748 mmHg 30%
18:00 +27°C° 0 mm 4 mps 748 mmHg 33%
19:00 +26°C° 0 mm 3 mps 748 mmHg 36%
20:00 +24°C° 0 mm 3 mps 749 mmHg 39%
21:00 +22°C° 0 mm 3 mps 749 mmHg 43%
22:00 +21°C° 0 mm 3 mps 749 mmHg 46%
23:00 +20°C° 0 mm 3 mps 750 mmHg 49%

3 August, Tuesday

Time Temperature Precipitation Wind Pressure Humidity
00:00 +20°C° 0 mm 3 mps 750 mmHg 52%
01:00 +19°C° 0 mm 2 mps 750 mmHg 55%
02:00 +19°C° 0 mm 2 mps 750 mmHg 56%
03:00 +19°C° 0 mm 2 mps 750 mmHg 57%
04:00 +18°C° 0 mm 2 mps 750 mmHg 58%
05:00 +20°C° 0 mm 2 mps 750 mmHg 53%
06:00 +23°C° 0 mm 2 mps 751 mmHg 49%
07:00 +24°C° 0 mm 2 mps 751 mmHg 44%
08:00 +26°C° 0 mm 1 mps 751 mmHg 39%
09:00 +28°C° 0 mm 1 mps 751 mmHg 34%
10:00 +30°C° 0 mm 1 mps 751 mmHg 29%
11:00 +31°C° 0 mm 1 mps 750 mmHg 27%
12:00 +32°C° 0 mm 1 mps 750 mmHg 26%
13:00 +33°C° 0 mm 1 mps 749 mmHg 24%
14:00 +34°C° 0 mm 2 mps 749 mmHg 23%
15:00 +35°C° 0 mm 2 mps 748 mmHg 23%
16:00 +35°C° 0 mm 2 mps 747 mmHg 22%
17:00 +32°C° 0 mm 2 mps 747 mmHg 25%
18:00 +30°C° 0 mm 3 mps 747 mmHg 28%
19:00 +28°C° 0 mm 3 mps 746 mmHg 31%
20:00 +27°C° 0 mm 3 mps 747 mmHg 38%
21:00 +25°C° 0 mm 4 mps 748 mmHg 46%
22:00 +23°C° 0 mm 5 mps 748 mmHg 53%
23:00 +21°C° 0 mm 5 mps 748 mmHg 65%

4 August, Wednesday

Time Temperature Precipitation Wind Pressure Humidity
00:00 +20°C° 0 mm 4 mps 749 mmHg 76%
01:00 +18°C° 0 mm 4 mps 749 mmHg 87%
02:00 +17°C° 0 mm 4 mps 749 mmHg 88%
03:00 +17°C° 0 mm 4 mps 749 mmHg 90%
04:00 +15°C° 0 mm 4 mps 749 mmHg 91%
05:00 +18°C° 0 mm 3 mps 750 mmHg 82%
06:00 +20°C° 0 mm 3 mps 750 mmHg 72%
07:00 +21°C° 0 mm 3 mps 750 mmHg 62%
08:00 +25°C° 0 mm 3 mps 750 mmHg 53%
09:00 +27°C° 0 mm 3 mps 750 mmHg 43%
10:00 +29°C° 0 mm 2 mps 750 mmHg 34%
11:00 +31°C° 0 mm 2 mps 750 mmHg 29%
12:00 +32°C° 0 mm 2 mps 749 mmHg 25%
13:00 +33°C° 0 mm 1 mps 749 mmHg 21%
14:00 +33°C° 0 mm 1 mps 748 mmHg 21%
15:00 +34°C° 0 mm 1 mps 748 mmHg 20%
16:00 +34°C° 0 mm 1 mps 747 mmHg 20%
17:00 +32°C° 0 mm 1 mps 747 mmHg 23%
18:00 +30°C° 0 mm 2 mps 747 mmHg 26%
19:00 +28°C° 0 mm 2 mps 747 mmHg 28%
20:00 +27°C° 0 mm 2 mps 747 mmHg 29%
21:00 +26°C° 0 mm 3 mps 747 mmHg 30%
22:00 +26°C° 0 mm 3 mps 747 mmHg 31%
23:00 +25°C° 0.1 mm 3 mps 747 mmHg 36%
Show more